Location: Bussy-Saint-Georges
(48.8410°N, 2.7017°E)
Time: 14:50:28
(UTC+00:00)

Cosmos 2369 - Pass Details

Date: 18 October 2021
Orbit: 838 x 857 km, 71.0° (Epoch: 29 November)

Event Time Altitude Azimuth Distance (km) Brightness Sun altitude
Rises 18:17:59 0° 214° (SSW) 3,383 7.3 -14.6°
Reaches altitude 10° 18:20:25 10° 216° (SW) 2,454 6.6 -15.0°
Maximum altitude 18:26:02 71° 300° (WNW) 897 4.0 -15.9°
Drops below altitude 10° 18:31:44 10° 25° (NNE) 2,482 5.9 -16.9°
Sets 18:34:13 0° 28° (NNE) 3,424 6.6 -17.3°
